Aurora, IL

10:22 AM CDT on August 16, 2017 (GMT -0500)
Aurora Municipal

Weather History for KARR - April, 2014

Change the Weather History Date:

Tuesday, April 29, 2014

  Actual Average Record
Temperature  
Mean Temperature 56 °F 53 °F  
Max Temperature 62 °F 65 °F 82 °F (2007)
Min Temperature 50 °F 41 °F 28 °F (2008)
Degree Days  
Heating Degree Days 9 12  
Month to date heating degree days 475 485  
Since 1 July heating degree days 7132 6493  
Cooling Degree Days 0 0  
Month to date cooling degree days 0 0  
Year to date cooling degree days 0 0  
Growing Degree Days 6 (Base 50)    
Moisture  
Dew Point 48 °F    
Average Humidity 79    
Maximum Humidity 96    
Minimum Humidity 62    
Precipitation  
Precipitation 0.26 in 0.16 in 2.18 in (2017)
Month to date precipitation 2.59 3.14  
Year to date precipitation 5.16 8.46  
Sea Level Pressure  
Sea Level Pressure 29.52 in    
Wind  
Wind Speed 9 mph (SE)    
Max Wind Speed 22 mph    
Max Gust Speed 29 mph    
Visibility 5 miles    
Events Fog , Rain    
T = Trace of Precipitation, MM = Missing Value Source: NWS Daily Summary

Daily Weather History Graph

Daily Weather History Graph

Search for Another Location

Airport or City:

Trip Planner

Search our weather history database for the weather conditions in past years. The results will help you decide how hot, cold, wet, or windy it might be!

Date:

Astronomy

Apr. 29, 2014 Rise Set
Actual Time 5:53 AM CDT 7:50 PM CDT
Civil Twilight 5:22 AM CDT 8:20 PM CDT
Nautical Twilight 4:46 AM CDT 8:57 PM CDT
Astronomical Twilight 4:06 AM CDT 9:37 PM CDT
Moon 6:11 AM CDT (4/29) 8:30 PM CDT (4/29)
Length of Visible Light 14h 57m
Length of Day
13h 57m
New Moon, 0% of the Moon is Illuminated
Apr 29
New Moon
May 6
First Quarter
May 14
Full
May 21
Last Quarter
May 28
New

Hourly Weather History & Observations

Time (CDT) Temp. Dew Point Humidity Pressure Visibility Wind Dir Wind Speed Gust Speed Precip Events Conditions
12:42 AM 52.0 °F 48.9 °F 89% 29.53 in 2.5 mi ESE 9.2 mph - 0.04 in Rain Light Rain
12:52 AM 52.0 °F 48.9 °F 89% 29.53 in 3.0 mi East 8.1 mph - 0.06 in Rain Light Rain
1:08 AM 52.0 °F 48.9 °F 89% 29.53 in 2.5 mi East 8.1 mph - 0.03 in Rain Rain
1:49 AM 51.8 °F 48.2 °F 88% 29.52 in 3.0 mi East 5.8 mph - 0.09 in Rain Light Rain
1:52 AM 52.0 °F 48.9 °F 89% 29.52 in 3.0 mi East 5.8 mph - 0.09 in Rain Light Rain
2:19 AM 52.0 °F 48.9 °F 89% 29.51 in 2.5 mi East 6.9 mph - 0.00 in   Overcast
2:52 AM 52.0 °F 48.9 °F 89% 29.49 in 2.5 mi East 8.1 mph - 0.00 in   Overcast
3:07 AM 52.0 °F 48.9 °F 89% 29.49 in 2.5 mi East 6.9 mph - N/A   Overcast
3:52 AM 52.0 °F 48.9 °F 89% 29.48 in 2.5 mi ESE 9.2 mph - N/A   Overcast
4:52 AM 52.0 °F 48.9 °F 89% 29.48 in 1.8 mi SE 9.2 mph - N/A   Overcast
5:36 AM 51.1 °F 50.0 °F 96% 29.47 in 0.8 mi SE 8.1 mph - N/A   Overcast
6:16 AM 51.1 °F 50.0 °F 96% 29.47 in 0.2 mi ESE 6.9 mph - N/A Fog Fog
6:52 AM 51.1 °F 50.0 °F 96% 29.48 in 0.5 mi SSE 9.2 mph - N/A Fog Fog
7:34 AM 51.1 °F 50.0 °F 96% 29.49 in 1.0 mi SSE 11.5 mph - N/A   Overcast
8:52 AM 52.0 °F 50.0 °F 93% 29.48 in 2.5 mi ESE 9.2 mph - 0.01 in Rain Light Rain
9:09 AM 53.1 °F 51.1 °F 93% 29.47 in 3.0 mi ESE 5.8 mph - 0.00 in   Overcast
9:19 AM 53.1 °F 50.0 °F 89% 29.49 in 2.0 mi SE 9.2 mph - 0.02 in Rain Rain
9:54 AM 53.1 °F 50.0 °F 89% 29.47 in 3.0 mi ESE 10.4 mph - 0.04 in Rain Light Rain
9:56 AM 53.1 °F 48.9 °F 86% 29.46 in 2.0 mi ENE 12.7 mph - 0.07 in Rain Rain
10:28 AM 57.0 °F 52.0 °F 83% 29.48 in 4.0 mi ESE 11.5 mph - 0.07 in   Haze
10:52 AM 57.9 °F 53.1 °F 84% 29.47 in 4.0 mi East 9.2 mph - 0.07 in   Haze
11:52 AM 62.1 °F 51.1 °F 67% 29.46 in 8.0 mi South 15.0 mph 19.6 mph N/A   Mostly Cloudy
12:52 PM 57.9 °F 45.0 °F 62% 29.49 in 10.0 mi SW 13.8 mph - N/A   Overcast
1:52 PM 57.0 °F 44.1 °F 62% 29.52 in 10.0 mi South 11.5 mph 19.6 mph N/A   Overcast
2:52 PM 55.9 °F 44.1 °F 64% 29.55 in 10.0 mi SSW 15.0 mph - N/A   Overcast
3:52 PM 57.9 °F 45.0 °F 62% 29.57 in 10.0 mi SSW 16.1 mph - N/A   Overcast
5:52 PM 55.0 °F 45.0 °F 69% 29.61 in 10.0 mi WSW 8.1 mph - N/A   Overcast
6:52 PM 54.0 °F 45.0 °F 72% 29.62 in 10.0 mi SW 10.4 mph - N/A   Overcast
7:52 PM 52.0 °F 46.0 °F 80% 29.64 in 8.0 mi SSW 5.8 mph - 0.00 in Rain Light Rain
8:52 PM 52.0 °F 46.0 °F 80% 29.66 in 10.0 mi Calm Calm - 0.00 in   Overcast
10:52 PM 51.1 °F 46.0 °F 83% 29.66 in 10.0 mi South 5.8 mph - 0.00 in   Overcast
11:52 PM 51.1 °F 46.0 °F 83% 29.66 in 10.0 mi South 6.9 mph - N/A   Overcast